Temp
-2 -3 -3 -3 -3 -3 -3 -3 -3 -3 -3 -3 -4 -5 -5 -5 -5 -5 -5 -6 -6 -6 -6 -6 -7 -7 -7 -7 -7 -7 -7 -7 -7 -7 -7 -7 -8 -7 -7 -7 -7 -7 -7
-2 -3 -3 -3 -3 -3 -3 -4 -4 -4 -4 -4 -5 -5 -5 -5 -5 -6 -6 -6 -7 -7 -7 -7 -7 -7 -7 -7 -7 -7 -7 -7 -8 -8 -8 -8 -8 -8 -8 -8 -8 -8 -8
-2 -3 -3 -3 -3 -3 -4 -4 -4 -4 -4 -5 -5 -5 -5 -6 -6 -6 -7 -7 -7 -7 -7 -8 -8 -8 -8 -8 -8 -8 -8 -8 -8 -8 -8 -8 -8 -8 -8 -8 -8 -8 -8
-3 -3 -3 -3 -3 -3 -4 -4 -4 -5 -5 -5 -6 -6 -6 -6 -7 -7 -7 -7 -7 -8 -8 -8 -8 -8 -8 -8 -8 -8 -9 -9 -9 -9 -9 -9 -9 -9 -9 -9 -9 -9 -8
-4 -4 -4 -4 -4 -4 -4 -5 -5 -5 -6 -6 -6 -6 -6 -7 -7 -7 -8 -8 -8 -8 -8 -9 -8 -9 -9 -9 -9 -9 -9 -9 -9 -9 -9 -9 -9 -9 -10 -9 -9 -9 -9
-4 -4 -4 -4 -5 -5 -5 -5 -6 -6 -6 -7 -7 -7 -7 -7 -8 -8 -8 -8 -9 -9 -9 -9 -9 -9 -9 -9 -10 -9 -9 -9 -9 -9 -9 -9 -10 -10 -10 -10 -10 -10 -10
-4 -4 -5 -5 -5 -5 -6 -6 -6 -6 -6 -7 -7 -7 -7 -8 -8 -8 -8 -9 -9 -9 -9 -10 -9 -9 -9 -9 -9 -10 -10 -10 -10 -10 -10 -10 -10 -10 -10 -10 -10 -10 -10
-4 -5 -5 -5 -5 -5 -6 -6 -7 -7 -7 -7 -8 -8 -8 -8 -8 -9 -9 -9 -10 -10 -10 -10 -10 -10 -10 -10 -10 -10 -10 -10 -10 -10 -10 -11 -11 -11 -11 -10 -11 -10 -11
-4 -5 -5 -5 -5 -6 -7 -7 -7 -7 -7 -7 -8 -8 -8 -9 -9 -9 -9 -10 -10 -10 -11 -11 -11 -11 -11 -11 -11 -11 -11 -11 -11 -11 -11 -11 -11 -11 -11 -11 -12 -12 -12
-4 -4 -5 -5 -6 -7 -7 -7 -7 -7 -7 -8 -8 -9 -9 -9 -10 -10 -10 -10 -11 -11 -11 -11 -11 -11 -11 -11 -11 -12 -12 -12 -12 -12 -12 -12 -12 -12 -12 -12 -12 -12 -13
-4 -5 -5 -6 -7 -7 -7 -7 -8 -8 -8 -10 -9 -10 -10 -10 -10 -10 -10 -11 -11 -11 -12 -12 -12 -12 -12 -12 -12 -12 -12 -12 -12 -12 -12 -12 -13 -13 -13 -13 -13 -13 -14
-5 -6 -6 -6 -6 -7 -7 -8 -8 -8 -10 -10 -9 -10 -10 -10 -11 -11 -11 -11 -11 -12 -12 -12 -12 -12 -12 -12 -13 -13 -13 -13 -13 -13 -13 -13 -14 -14 -14 -14 -14 -14 -14
-5 -6 -7 -7 -7 -7 -8 -8 -8 -9 -11 -10 -10 -10 -11 -11 -11 -11 -12 -12 -12 -12 -12 -12 -12 -12 -13 -13 -13 -13 -13 -14 -14 -14 -14 -14 -15 -15 -15 -15 -15 -15 -15
-7 -7 -7 -8 -8 -8 -9 -9 -9 -11 -10 -10 -10 -10 -11 -11 -12 -12 -12 -12 -12 -12 -12 -13 -13 -13 -13 -13 -13 -14 -14 -15 -14 -15 -15 -15 -15 -16 -16 -16 -16 -16 -17
-7 -7 -8 -8 -9 -9 -9 -9 -10 -11 -11 -11 -11 -11 -11 -12 -12 -12 -12 -12 -13 -13 -13 -13 -13 -13 -14 -14 -14 -14 -15 -15 -15 -16 -16 -16 -16 -16 -16 -17 -17 -17 -18
-7 -8 -8 -8 -9 -9 -9 -10 -10 -10 -10 -11 -11 -11 -12 -12 -12 -13 -13 -13 -13 -13 -13 -13 -13 -14 -14 -14 -15 -15 -15 -16 -16 -16 -16 -17 -17 -17 -18 -18 -18 -18 -18
-8 -8 -9 -9 -9 -9 -10 -10 -10 -11 -11 -11 -12 -12 -12 -12 -12 -12 -13 -13 -13 -13 -14 -14 -14 -15 -15 -15 -16 -16 -16 -17 -17 -17 -17 -18 -18 -18 -18 -18 -19 -19 -19
-8 -9 -9 -9 -10 -10 -10 -11 -11 -11 -12 -12 -12 -12 -12 -12 -13 -13 -13 -13 -14 -14 -14 -14 -14 -15 -16 -16 -17 -17 -17 -18 -18 -18 -18 -19 -19 -19 -19 -19 -20 -20 -20
-9 -9 -10 -10 -10 -11 -11 -11 -12 -12 -12 -12 -12 -12 -13 -13 -13 -13 -14 -14 -14 -15 -15 -15 -15 -17 -17 -17 -18 -18 -19 -19 -19 -19 -19 -20 -20 -20 -20 -20 -21 -21 -21
-9 -10 -10 -11 -11 -11 -11 -11 -12 -12 -12 -12 -13 -13 -13 -13 -14 -14 -14 -14 -15 -15 -16 -16 -17 -17 -17 -18 -19 -19 -19 -19 -19 -20 -20 -20 -20 -20 -21 -21 -22 -22 -22
-10 -10 -11 -11 -11 -12 -12 -12 -12 -12 -12 -13 -13 -13 -13 -14 -14 -14 -14 -15 -15 -16 -16 -17 -17 -18 -18 -19 -20 -20 -20 -20 -20 -21 -21 -21 -21 -22 -22 -22 -23 -23 -23
-11 -11 -11 -12 -12 -12 -12 -12 -12 -12 -13 -13 -13 -14 -14 -14 -15 -15 -15 -15 -16 -17 -17 -17 -18 -19 -20 -21 -21 -21 -20 -21 -21 -21 -22 -22 -22 -23 -23 -23 -23 -24 -24
-11 -11 -12 -12 -12 -12 -12 -13 -13 -13 -13 -13 -13 -14 -14 -14 -15 -15 -15 -16 -17 -17 -18 -19 -19 -20 -21 -21 -21 -21 -21 -21 -22 -22 -22 -23 -23 -23 -23 -24 -24 -25 -25
-11 -11 -12 -12 -13 -13 -13 -13 -13 -13 -14 -14 -14 -14 -14 -15 -15 -16 -17 -17 -18 -19 -19 -20 -21 -21 -21 -21 -21 -22 -22 -22 -22 -23 -23 -23 -24 -24 -24 -25 -25 -25 -26
-11 -12 -12 -12 -12 -13 -13 -13 -13 -13 -14 -14 -14 -15 -15 -16 -17 -17 -18 -18 -19 -19 -20 -21 -21 -21 -21 -21 -21 -22 -22 -23 -23 -23 -24 -24 -24 -24 -25 -25 -26 -26 -26
-12 -12 -12 -12 -12 -13 -13 -13 -13 -14 -14 -15 -15 -16 -16 -17 -17 -18 -18 -19 -20 -20 -20 -20 -21 -21 -21 -22 -22 -22 -23 -23 -23 -24 -24 -24 -25 -25 -26 -26 -26 -27 -27
Height
3037 3040 3044 3047 3049 3051 3052 3053 3052 3050 3049 3048 3046 3046 3045 3044 3045 3044 3043 3043 3043 3043 3044 3044 3043 3043 3042 3040 3039 3038 3036 3033 3030 3027 3024 3020 3017 3013 3010 3006 3003 2999 2995
3032 3036 3039 3041 3044 3045 3046 3046 3046 3045 3044 3043 3042 3041 3042 3041 3041 3041 3041 3041 3040 3042 3042 3042 3041 3040 3039 3037 3037 3035 3033 3030 3027 3024 3020 3017 3014 3010 3007 3004 3000 2996 2993
3027 3030 3033 3035 3038 3039 3040 3040 3040 3040 3039 3038 3038 3037 3037 3038 3037 3038 3038 3038 3038 3040 3040 3039 3039 3037 3037 3036 3033 3032 3029 3026 3023 3020 3017 3014 3010 3007 3003 3001 2997 2994 2991
3021 3023 3026 3028 3030 3031 3033 3034 3034 3034 3034 3033 3033 3033 3033 3034 3034 3034 3034 3035 3036 3037 3037 3036 3035 3035 3034 3033 3030 3027 3025 3022 3019 3016 3013 3010 3007 3004 3001 2998 2995 2991 2988
3013 3016 3018 3020 3023 3024 3025 3028 3028 3028 3028 3028 3028 3028 3029 3030 3030 3031 3031 3032 3034 3034 3033 3032 3031 3031 3030 3028 3025 3023 3020 3018 3015 3012 3009 3006 3003 3001 2998 2996 2992 2988 2984
3007 3009 3011 3013 3015 3017 3019 3020 3021 3021 3021 3022 3023 3024 3025 3026 3026 3027 3028 3030 3031 3031 3030 3028 3028 3028 3026 3025 3022 3018 3016 3013 3011 3009 3006 3002 2999 2996 2993 2990 2989 2986 2982
3000 3002 3003 3006 3007 3008 3011 3013 3014 3014 3016 3017 3018 3020 3021 3022 3022 3023 3025 3027 3028 3027 3026 3024 3024 3022 3021 3020 3018 3015 3012 3009 3007 3004 3001 2998 2995 2992 2988 2985 2982 2980 2976
2991 2993 2994 2998 3000 3002 3004 3006 3007 3008 3009 3011 3014 3016 3017 3018 3018 3020 3022 3023 3022 3022 3022 3020 3019 3017 3015 3013 3012 3010 3007 3004 3002 2999 2996 2993 2990 2987 2983 2979 2976 2973 2971
2983 2985 2986 2990 2993 2995 2997 2999 3000 3001 3003 3006 3010 3011 3013 3014 3015 3017 3019 3019 3018 3018 3018 3016 3015 3013 3011 3009 3006 3004 3002 2999 2996 2993 2990 2987 2984 2981 2978 2974 2970 2966 2963
2977 2979 2980 2983 2986 2988 2989 2991 2992 2994 2997 3001 3005 3007 3008 3009 3010 3012 3015 3015 3014 3014 3012 3012 3010 3008 3007 3004 3002 2999 2996 2993 2990 2987 2985 2981 2978 2974 2971 2968 2964 2960 2957
2971 2973 2974 2975 2977 2980 2982 2984 2987 2988 2991 2997 3002 3003 3004 3005 3006 3008 3009 3011 3011 3011 3008 3007 3006 3004 3002 3000 2997 2994 2991 2988 2985 2982 2979 2976 2972 2968 2964 2960 2956 2953 2950
2966 2967 2968 2970 2972 2974 2976 2978 2980 2983 2987 2993 2996 2998 2999 3001 3003 3004 3003 3004 3005 3005 3004 3002 3000 2998 2996 2994 2991 2988 2985 2982 2979 2976 2972 2969 2965 2962 2958 2954 2951 2946 2943
2961 2961 2963 2965 2968 2969 2972 2974 2977 2980 2984 2988 2991 2994 2996 2997 2998 2999 2999 2999 2999 2999 2998 2997 2995 2993 2991 2988 2985 2982 2979 2975 2972 2969 2965 2962 2958 2955 2951 2948 2945 2941 2937
2956 2957 2959 2961 2964 2965 2968 2971 2973 2977 2981 2984 2987 2990 2992 2993 2994 2995 2994 2995 2994 2993 2992 2991 2989 2986 2984 2982 2979 2976 2973 2969 2965 2962 2959 2955 2951 2947 2943 2941 2938 2935 2932
2952 2953 2955 2957 2960 2962 2965 2968 2971 2974 2977 2980 2983 2985 2987 2988 2988 2989 2989 2989 2989 2987 2986 2984 2982 2980 2977 2975 2972 2969 2967 2963 2959 2954 2951 2948 2944 2940 2937 2934 2931 2928 2925
2948 2950 2952 2954 2957 2959 2962 2965 2969 2971 2974 2976 2978 2981 2982 2983 2983 2983 2983 2984 2983 2981 2980 2978 2976 2973 2970 2968 2965 2961 2958 2955 2952 2947 2944 2941 2937 2933 2930 2927 2924 2921 2918
2945 2947 2949 2951 2953 2956 2959 2962 2965 2968 2969 2972 2973 2975 2976 2978 2978 2978 2978 2978 2977 2975 2972 2971 2969 2966 2962 2960 2957 2954 2950 2947 2944 2940 2936 2934 2930 2926 2923 2920 2917 2914 2910
2942 2945 2947 2948 2951 2954 2956 2959 2961 2963 2965 2966 2968 2969 2970 2971 2971 2972 2971 2971 2969 2967 2965 2963 2962 2959 2956 2952 2949 2946 2942 2939 2936 2932 2928 2925 2922 2918 2915 2912 2909 2906 2903
2940 2942 2944 2945 2948 2951 2953 2955 2956 2958 2960 2961 2963 2963 2964 2964 2965 2965 2965 2964 2962 2960 2958 2956 2955 2952 2949 2946 2943 2939 2936 2932 2929 2925 2921 2918 2915 2911 2908 2904 2901 2898 2895
2937 2939 2941 2943 2944 2946 2949 2951 2953 2954 2956 2957 2958 2959 2959 2959 2959 2958 2958 2957 2955 2953 2951 2949 2947 2945 2942 2938 2934 2930 2927 2925 2922 2918 2914 2911 2908 2904 2901 2897 2894 2890 2887
2934 2936 2938 2940 2942 2943 2945 2947 2948 2950 2952 2953 2953 2953 2953 2954 2953 2952 2951 2949 2947 2946 2943 2941 2939 2936 2934 2931 2927 2924 2920 2917 2913 2909 2906 2902 2900 2896 2893 2889 2886 2882 2878
2931 2933 2935 2937 2939 2940 2941 2943 2945 2946 2947 2949 2949 2949 2948 2948 2946 2945 2944 2943 2941 2938 2936 2932 2929 2926 2923 2921 2919 2916 2912 2909 2906 2903 2899 2896 2892 2888 2885 2881 2877 2874 2870
2929 2930 2932 2934 2936 2937 2939 2940 2941 2942 2943 2943 2943 2943 2942 2941 2939 2937 2936 2936 2933 2930 2927 2924 2921 2919 2917 2915 2912 2909 2904 2900 2898 2895 2891 2888 2884 2880 2876 2873 2869 2866 2862
2926 2928 2930 2931 2933 2934 2936 2937 2937 2938 2937 2937 2936 2936 2935 2934 2932 2930 2928 2926 2924 2921 2919 2916 2915 2913 2911 2908 2904 2901 2896 2893 2890 2887 2883 2880 2876 2872 2869 2865 2861 2858 2854
2923 2925 2927 2929 2930 2931 2931 2932 2932 2932 2931 2930 2930 2929 2927 2926 2925 2923 2922 2920 2917 2915 2913 2911 2908 2905 2901 2899 2896 2892 2889 2886 2882 2879 2876 2872 2868 2865 2861 2858 2854 2851 2847
2921 2923 2924 2925 2926 2927 2927 2927 2927 2926 2925 2924 2922 2921 2920 2919 2918 2916 2914 2911 2909 2907 2905 2903 2900 2896 2893 2890 2886 2883 2880 2877 2874 2871 2867 2864 2861 2857 2854 2850 2847 2843 2840
Wind_Speed
19 22 22 20 20 18 16 15 15 16 17 19 18 16 15 14 11 11 11 10 8 6 7 5 6 6 8 11 14 17 19 21 21 21 22 21 21 20 21 21 21 20 19
22 23 23 22 22 20 17 17 17 17 18 19 19 15 14 13 12 11 11 9 7 7 7 6 7 8 11 14 17 19 21 22 22 21 20 20 21 20 20 20 21 21 21
24 24 22 22 21 19 19 20 19 21 21 19 18 16 13 12 12 11 10 8 7 9 7 7 8 10 13 16 18 20 22 21 20 20 20 20 20 21 20 20 21 22 23
28 25 23 23 21 19 20 23 23 22 21 20 17 16 13 13 13 12 10 8 10 10 8 8 9 12 15 16 19 20 20 19 19 20 20 20 20 21 20 20 20 21 23
27 25 25 25 24 22 20 27 25 23 23 20 17 16 13 14 13 12 10 11 12 11 9 9 10 13 15 18 20 20 19 19 19 19 20 21 22 21 20 20 20 20 22
26 28 28 28 28 26 26 26 24 24 25 19 17 16 14 15 14 12 12 12 13 11 10 10 12 15 16 16 18 19 19 19 19 20 21 22 22 22 23 23 21 20 19
27 29 31 30 31 27 28 26 24 22 21 19 17 17 16 16 15 13 13 14 14 12 10 13 15 17 18 18 16 17 19 20 20 21 21 21 21 22 23 25 25 25 25
26 28 33 33 32 31 30 26 25 24 24 20 18 19 17 17 15 14 14 15 13 11 12 14 16 17 19 20 18 19 21 21 21 22 22 22 23 23 26 27 28 28 27
22 22 29 30 32 32 29 25 24 23 22 20 19 20 18 17 16 15 15 14 13 12 13 14 16 17 18 19 21 21 21 23 23 23 23 23 24 26 26 28 29 30 30
23 20 24 26 28 28 26 24 22 23 22 21 21 19 18 17 16 16 15 13 13 13 15 16 17 18 18 20 22 23 23 24 25 24 24 26 27 28 29 30 30 30 30
19 16 17 19 20 22 22 23 22 24 22 18 17 17 18 18 17 17 16 14 13 13 16 17 17 18 19 21 23 23 24 25 25 25 26 27 29 30 30 30 30 29 28
16 16 18 18 16 17 18 20 21 23 19 16 18 19 19 17 16 17 17 16 16 17 18 19 19 20 22 23 24 24 25 25 26 27 28 29 30 29 28 29 28 29 29
15 17 18 18 17 19 18 18 20 19 15 18 19 18 17 17 17 17 18 18 19 19 20 21 21 22 24 24 25 25 25 27 28 29 30 30 29 29 28 27 26 27 28
14 16 16 17 17 16 15 17 17 14 16 17 17 16 15 16 17 18 19 20 21 21 22 23 24 25 25 25 25 25 26 27 29 29 29 28 28 27 28 27 25 24 23
17 16 16 16 15 14 15 15 13 15 17 17 16 15 15 16 18 19 20 20 21 22 23 24 25 26 26 26 26 26 26 27 29 29 29 27 26 27 28 27 25 23 23
14 13 13 13 13 14 14 12 13 15 16 16 17 16 17 18 18 19 20 21 21 22 24 25 26 25 26 26 26 28 29 29 28 28 28 26 26 26 25 25 24 24 24
12 11 11 12 13 12 11 12 13 13 15 16 16 17 18 17 18 19 20 20 21 24 25 26 25 25 27 27 27 28 29 28 28 28 28 26 25 25 25 25 25 25 25
11 11 11 12 11 11 12 13 14 14 15 15 15 16 16 17 17 18 19 21 23 25 26 26 26 24 26 28 28 28 28 28 28 29 28 27 26 26 27 26 26 26 26
11 10 11 11 11 11 12 12 12 12 13 14 14 14 15 17 18 19 20 23 25 25 26 26 26 24 25 27 26 26 28 28 29 28 27 27 26 27 28 28 27 28 28
10 10 10 10 11 11 11 11 11 11 13 13 13 14 15 17 18 21 23 24 24 25 26 26 25 24 25 26 27 29 30 30 29 28 27 27 27 27 28 28 28 29 29
10 10 10 10 10 10 10 10 11 11 11 12 13 15 16 18 20 22 24 25 25 25 27 26 26 25 25 25 27 30 31 31 29 28 28 29 29 28 28 29 29 29 29
10 10 10 10 10 10 10 10 11 11 12 12 14 16 17 19 21 22 24 24 24 25 27 26 27 27 28 30 32 33 33 31 29 28 28 28 29 29 29 29 29 29 29
11 11 10 10 11 11 11 11 11 12 13 15 15 16 18 20 22 24 24 23 24 25 26 27 27 28 31 33 34 33 32 31 30 29 29 28 29 29 29 29 29 28 29
11 11 11 11 11 11 12 12 12 13 15 17 18 19 21 22 23 23 24 25 25 26 26 26 27 31 33 33 32 31 30 30 29 29 28 28 29 29 28 28 28 28 28
11 11 10 10 11 11 12 13 13 15 17 19 20 22 23 23 22 22 24 25 25 25 25 27 30 32 33 32 30 29 29 28 28 28 27 27 27 27 27 27 27 27 27
10 9 9 10 10 11 13 14 16 17 19 21 23 23 23 22 23 23 25 26 26 27 28 29 29 30 30 29 29 29 28 28 28 28 27 27 27 26 26 26 26 26 26
Wind_Direction
237 228 229 233 234 242 249 260 281 294 302 303 293 287 282 274 276 277 277 275 265 269 264 270 284 299 318 326 328 328 330 330 329 329 331 335 337 337 336 336 336 339 342
225 223 230 239 235 242 252 263 277 290 295 294 280 276 268 267 270 270 267 258 260 260 259 269 283 307 321 323 321 324 324 325 327 330 330 331 333 334 333 334 333 335 339
227 228 232 236 239 248 261 273 279 283 286 285 273 267 257 258 263 260 252 251 257 253 253 271 295 312 315 315 320 321 323 325 327 328 328 329 330 332 332 331 331 331 333
236 231 237 242 241 248 266 271 273 277 275 275 265 257 248 255 255 248 244 254 254 249 256 277 296 305 307 313 317 321 324 326 326 327 328 329 330 329 328 331 330 324 324
248 241 241 244 248 251 256 265 269 270 270 263 255 247 243 252 245 243 245 250 250 254 264 279 295 301 308 316 319 320 322 325 324 324 325 325 325 325 323 321 324 326 323
257 252 248 248 249 249 259 260 265 270 270 249 246 241 242 243 242 242 245 247 252 260 274 285 290 298 306 314 317 317 320 320 319 320 321 321 321 320 322 323 322 321 319
263 255 248 247 248 251 257 259 262 264 253 244 239 236 238 238 240 240 244 249 251 258 275 287 295 302 306 309 311 314 316 316 317 319 320 319 317 316 317 320 321 320 318
266 254 246 243 241 248 256 254 257 258 241 239 231 234 235 236 237 238 247 252 259 269 280 291 300 306 309 311 314 316 316 315 315 316 315 315 315 316 316 317 316 314 312
264 250 242 243 245 252 254 251 252 249 238 234 226 231 234 237 239 244 251 259 267 277 285 294 300 303 306 309 314 316 314 313 314 315 315 315 315 315 316 315 314 312 310
263 255 249 249 249 250 245 242 242 237 230 225 221 229 234 237 242 249 250 255 269 283 289 294 300 302 305 309 312 312 312 313 313 314 315 315 314 314 314 312 310 307 306
254 245 237 238 235 236 234 233 235 231 228 218 223 225 232 236 243 252 258 260 268 277 285 295 298 299 305 307 308 309 310 310 311 311 312 313 314 313 313 312 310 307 305
246 240 228 225 231 238 242 245 242 234 212 213 221 223 233 239 247 255 265 274 279 282 287 295 298 302 305 307 307 307 308 308 309 311 313 313 312 312 312 310 309 306 305
255 249 240 241 240 243 249 247 239 220 202 220 225 231 235 243 250 257 265 273 279 285 290 295 297 300 303 305 305 306 307 309 310 311 312 311 310 310 308 307 307 305 305
244 247 236 235 240 244 241 230 219 202 217 225 231 236 240 248 253 260 267 273 280 285 290 294 296 300 303 303 303 304 306 306 307 308 309 310 310 309 308 307 305 303 303
240 238 227 230 234 234 225 216 207 215 224 227 232 237 242 246 253 262 269 274 279 284 290 293 297 300 301 301 301 302 305 306 309 310 309 312 309 308 306 305 305 306 304
236 233 225 222 225 223 220 221 220 224 231 233 237 239 240 246 255 263 269 273 279 285 287 290 294 297 298 301 304 306 308 309 309 309 310 311 309 306 304 305 306 306 305
231 221 218 220 221 221 221 229 234 232 233 236 240 243 248 254 260 264 269 275 281 285 290 295 298 301 301 302 305 306 307 308 310 311 310 310 308 306 306 307 307 307 305
222 214 213 220 219 220 227 233 237 236 239 245 245 248 255 262 266 270 276 282 286 290 293 296 300 301 300 302 304 306 307 310 311 312 311 310 311 308 307 308 307 306 304
220 213 215 217 227 228 232 236 240 241 242 245 250 255 260 265 270 276 280 285 288 291 293 296 301 300 296 299 303 305 307 311 312 311 310 308 308 305 307 307 307 306 305
219 216 215 224 234 241 239 238 233 232 242 249 254 257 261 269 276 280 285 286 288 290 293 298 298 296 301 306 309 310 310 311 310 309 307 306 306 306 306 307 306 306 306
215 218 226 233 238 239 239 240 245 246 243 247 256 264 271 276 279 283 286 288 291 294 296 296 295 301 304 308 311 310 309 309 310 309 308 308 308 307 307 307 307 307 306
222 231 234 234 233 237 243 245 245 249 254 256 260 266 272 277 280 282 284 290 294 293 294 299 303 308 314 312 309 307 306 307 306 307 306 304 305 305 306 307 308 308 308
226 229 230 230 232 236 241 246 252 256 261 267 273 278 282 285 286 287 293 294 294 299 301 302 306 307 303 302 301 303 303 304 305 305 305 305 305 307 309 309 308 308 308
223 222 222 226 232 237 244 250 255 261 270 279 285 287 289 289 292 296 297 299 300 300 301 304 299 293 293 296 298 300 299 300 303 303 303 305 306 307 307 307 307 308 309
221 224 226 229 236 244 253 259 266 274 281 286 289 292 294 297 296 294 294 295 296 297 297 293 291 292 294 296 298 296 298 300 300 301 303 304 305 307 307 307 308 309 310
224 229 232 241 249 256 264 273 280 285 290 292 294 295 295 293 293 294 296 297 297 293 292 293 293 292 295 296 295 298 299 300 301 302 304 306 308 308 308 309 311 312 312